CATSAT-1 (44029 NORAD) Tracking and Keplerian Element Data

This shows tracking and keplerian element data for the satellite.

Feedback or suggestion? Click here.




ElementValue
Catalog44029
NameCATSAT-1
Epoch Orbit322
Epoch Day51.7692675
Epoch Year2019
RAAN220.0046
Inclination51.6382
Eccentricity0.0005334
Argument of Perigee72.5872
Mean Anonmoly287.5702
Mean Motion15.54090319
Decay Rate6.825E-05
L11 44029U 98067PV 19051.76926750 .00006825 00000-0 11038-3 0 9994
L22 44029 51.6382 220.0046 0005334 72.5872 287.5702 15.54090319 3221

Live tracking and technical data element details for CATSAT-1 (NORAD 44029). CATSAT-1 can be tracked NOW for your location showing map with azimuth and elevation plus other details from your city location.

Track the satellite on the map from your city or location and see movement details for azimuth, elevation, latitude, longitude, range, height, and movement on the map or in text.







IsCatalogInMostPopularTable: catalog: 44029, numindb: 7
Update: records affected: 1



GetName: 44029 CATSAT-1

Hit Count: updated at: Thu, 21 Feb 2019 11:22:16 GMT